NKS251 KFLL-KMCO

Flight info

Callsign NKS251
Flight time 0h 39m
Altitude 22000
Route FRSBE2 WAPOM MUNGI1
Aircraft A20N/M-SDE2E3FGHIRWXY/LB1

Departure

Time 2026-05-03 23:00
Airport Fort Lauderdale Hollywood International Airport (KFLL)

Arrival

Time 2026-05-03 23:39
Airport Orlando International Airport (KMCO)
Time Latitude Longitude Altitude Speed Heading
2026-05-03 22:11 26.07493 -80.15882 15 ft 0 kts 270°
2026-05-03 22:11 26.07493 -80.15835 15 ft 0 kts 270°
2026-05-03 22:15 26.07493 -80.15840 15 ft 5 kts 270°
2026-05-03 22:15 26.07493 -80.15956 15 ft 11 kts 265°
2026-05-03 22:15 26.07493 -80.15967 15 ft 0 kts 270°
2026-05-03 22:20 26.07493 -80.15971 15 ft 3 kts 270°
2026-05-03 22:20 26.07493 -80.16017 15 ft 8 kts 271°
2026-05-03 22:21 26.07494 -80.16035 16 ft 0 kts 271°
2026-05-03 22:21 26.07494 -80.16079 16 ft 0 kts 271°
2026-05-03 22:24 26.07494 -80.16080 16 ft 0 kts 271°
2026-05-03 22:25 26.07495 -80.16111 16 ft 7 kts 271°
2026-05-03 22:25 26.07495 -80.16124 16 ft 0 kts 271°
2026-05-03 22:26 26.07496 -80.16137 16 ft 5 kts 271°
2026-05-03 22:26 26.07496 -80.16156 16 ft 0 kts 269°
2026-05-03 22:26 26.07496 -80.16171 16 ft 0 kts 269°
2026-05-03 22:32 26.07495 -80.16242 16 ft 0 kts 270°
2026-05-03 22:34 26.07496 -80.16257 16 ft 0 kts 270°
2026-05-03 22:34 26.07496 -80.16272 15 ft 6 kts 270°
2026-05-03 22:34 26.07496 -80.16278 15 ft 0 kts 270°
2026-05-03 22:38 26.07496 -80.16287 15 ft 5 kts 270°
2026-05-03 22:38 26.07496 -80.16344 15 ft 0 kts 270°
2026-05-03 22:39 26.07496 -80.16361 15 ft 6 kts 270°
2026-05-03 22:40 26.07496 -80.16423 15 ft 10 kts 270°
2026-05-03 22:40 26.07497 -80.16457 15 ft 0 kts 270°
2026-05-03 22:48 26.07497 -80.16460 15 ft 2 kts 270°
2026-05-03 22:48 26.07497 -80.16495 16 ft 7 kts 270°
2026-05-03 22:48 26.07497 -80.16508 15 ft 0 kts 270°
2026-05-03 22:49 26.07497 -80.16510 15 ft 2 kts 270°
2026-05-03 22:49 26.07497 -80.16552 15 ft 8 kts 268°
2026-05-03 22:49 26.07497 -80.16563 15 ft 0 kts 268°
2026-05-03 22:50 26.07497 -80.16567 15 ft 2 kts 268°
2026-05-03 22:50 26.07502 -80.16613 15 ft 8 kts 291°
2026-05-03 22:50 26.07504 -80.16619 15 ft 0 kts 294°
2026-05-03 22:54 26.07505 -80.16622 15 ft 2 kts 294°
2026-05-03 22:55 26.07535 -80.16637 16 ft 7 kts
2026-05-03 22:55 26.07588 -80.16644 17 ft 1 kts 356°
2026-05-03 22:58 26.07616 -80.16645 16 ft 14 kts 359°
2026-05-03 22:58 26.07694 -80.16590 19 ft 9 kts 76°
2026-05-03 22:59 26.07696 -80.16569 18 ft 0 kts 88°
2026-05-03 22:59 26.07697 -80.16446 19 ft 54 kts 90°
2026-05-03 22:59 26.07693 -80.15705 17 ft 134 kts 90°
2026-05-03 23:00 26.07686 -80.14499 295 ft 172 kts 87°
2026-05-03 23:00 26.07702 -80.13136 1137 ft 177 kts 91°
2026-05-03 23:00 26.07737 -80.11764 1943 ft 183 kts 91°
2026-05-03 23:00 26.07813 -80.10273 2553 ft 203 kts 81°
2026-05-03 23:01 26.08291 -80.08708 3182 ft 225 kts 66°
2026-05-03 23:01 26.09138 -80.07158 3759 ft 249 kts 42°
2026-05-03 23:01 26.10660 -80.06101 4389 ft 260 kts 17°
2026-05-03 23:01 26.12432 -80.05446 4844 ft 279 kts 12°
2026-05-03 23:02 26.14311 -80.04898 4543 ft 282 kts
2026-05-03 23:02 26.16235 -80.04927 4202 ft 274 kts 345°
2026-05-03 23:02 26.17999 -80.05575 4017 ft 262 kts 334°
2026-05-03 23:02 26.19744 -80.06292 4007 ft 269 kts 336°
2026-05-03 23:03 26.21467 -80.07076 4003 ft 266 kts 324°
2026-05-03 23:03 26.22743 -80.08485 4005 ft 258 kts 297°
2026-05-03 23:03 26.23454 -80.10316 4003 ft 256 kts 289°
2026-05-03 23:03 26.24107 -80.12175 4005 ft 257 kts 289°
2026-05-03 23:04 26.24767 -80.14033 4008 ft 259 kts 289°
2026-05-03 23:04 26.25446 -80.15831 4321 ft 250 kts 295°
2026-05-03 23:04 26.26340 -80.17464 5210 ft 238 kts 301°
2026-05-03 23:04 26.27196 -80.18935 6539 ft 220 kts 300°
2026-05-03 23:05 26.28020 -80.20386 7435 ft 226 kts 299°
2026-05-03 23:05 26.28864 -80.21880 8196 ft 231 kts 299°
2026-05-03 23:05 26.29739 -80.23422 9035 ft 234 kts 298°
2026-05-03 23:05 26.30622 -80.24974 9855 ft 239 kts 297°
2026-05-03 23:06 26.31518 -80.26548 10590 ft 242 kts 297°
2026-05-03 23:06 26.32422 -80.28135 11411 ft 242 kts 297°
2026-05-03 23:06 26.33321 -80.29715 12197 ft 244 kts 296°
2026-05-03 23:06 26.34252 -80.31358 12763 ft 258 kts 296°
2026-05-03 23:07 26.35236 -80.33111 12967 ft 284 kts 296°
2026-05-03 23:07 26.36357 -80.35110 13018 ft 315 kts 297°
2026-05-03 23:07 26.37576 -80.37269 13016 ft 339 kts 297°
2026-05-03 23:07 26.38834 -80.39477 13016 ft 341 kts 298°
2026-05-03 23:08 26.40105 -80.41701 13018 ft 340 kts 298°
2026-05-03 23:08 26.41367 -80.43916 13015 ft 340 kts 297°
2026-05-03 23:08 26.42641 -80.46162 13018 ft 340 kts 297°
2026-05-03 23:08 26.43901 -80.48390 13020 ft 340 kts 297°
2026-05-03 23:09 26.45165 -80.50629 13016 ft 340 kts 297°
2026-05-03 23:09 26.46422 -80.52857 13018 ft 340 kts 297°
2026-05-03 23:09 26.47833 -80.54983 13022 ft 345 kts 309°
2026-05-03 23:09 26.49762 -80.56642 13018 ft 356 kts 326°
2026-05-03 23:10 26.52106 -80.57647 13024 ft 364 kts 339°
2026-05-03 23:10 26.54526 -80.58399 13022 ft 364 kts 339°
2026-05-03 23:10 26.56952 -80.59159 13023 ft 363 kts 339°
2026-05-03 23:10 26.59394 -80.59928 13027 ft 363 kts 339°
2026-05-03 23:11 26.61831 -80.60701 13023 ft 364 kts 339°
2026-05-03 23:11 26.64270 -80.61476 13021 ft 363 kts 339°
2026-05-03 23:11 26.66706 -80.62251 13023 ft 363 kts 339°
2026-05-03 23:11 26.69137 -80.63024 13020 ft 363 kts 339°
2026-05-03 23:12 26.71568 -80.63798 13022 ft 363 kts 338°
2026-05-03 23:12 26.74000 -80.64572 13022 ft 363 kts 338°
2026-05-03 23:12 26.76434 -80.65347 13027 ft 363 kts 338°
2026-05-03 23:12 26.78863 -80.66122 13028 ft 363 kts 338°
2026-05-03 23:13 26.81296 -80.66898 13023 ft 363 kts 338°
2026-05-03 23:13 26.83728 -80.67674 13030 ft 362 kts 338°
2026-05-03 23:13 26.86153 -80.68448 13027 ft 362 kts 338°
2026-05-03 23:13 26.88553 -80.69215 13028 ft 362 kts 338°
2026-05-03 23:14 26.90979 -80.69991 13027 ft 362 kts 338°
2026-05-03 23:14 26.93390 -80.70809 13029 ft 361 kts 336°
2026-05-03 23:14 26.95770 -80.71714 13026 ft 360 kts 335°
2026-05-03 23:14 26.98134 -80.72638 13030 ft 359 kts 335°
2026-05-03 23:15 27.00476 -80.73549 13028 ft 360 kts 335°
2026-05-03 23:15 27.02845 -80.74459 13026 ft 360 kts 335°
2026-05-03 23:15 27.05221 -80.75364 13029 ft 359 kts 335°
2026-05-03 23:15 27.07596 -80.76266 13026 ft 359 kts 335°
2026-05-03 23:16 27.09966 -80.77164 13029 ft 360 kts 335°
2026-05-03 23:16 27.12336 -80.78062 13027 ft 359 kts 335°
2026-05-03 23:16 27.14691 -80.78954 13028 ft 359 kts 335°
2026-05-03 23:16 27.17066 -80.79855 13022 ft 359 kts 335°
2026-05-03 23:17 27.19436 -80.80754 13026 ft 359 kts 335°
2026-05-03 23:17 27.21800 -80.81652 13023 ft 359 kts 335°
2026-05-03 23:17 27.24137 -80.82539 13023 ft 359 kts 335°
2026-05-03 23:17 27.26503 -80.83438 13023 ft 358 kts 335°
2026-05-03 23:18 27.28859 -80.84334 13027 ft 358 kts 335°
2026-05-03 23:18 27.31238 -80.85239 13023 ft 358 kts 335°
2026-05-03 23:18 27.33635 -80.86037 13025 ft 361 kts 339°
2026-05-03 23:18 27.36063 -80.86751 13030 ft 361 kts 339°
2026-05-03 23:19 27.38489 -80.87470 13028 ft 360 kts 339°
2026-05-03 23:19 27.40919 -80.88191 13028 ft 360 kts 339°
2026-05-03 23:19 27.43347 -80.88914 13031 ft 360 kts 339°
2026-05-03 23:19 27.45774 -80.89636 13030 ft 360 kts 339°
2026-05-03 23:20 27.48202 -80.90358 13031 ft 360 kts 339°
2026-05-03 23:20 27.50583 -80.91067 13035 ft 360 kts 339°
2026-05-03 23:20 27.52972 -80.91779 13039 ft 360 kts 339°
2026-05-03 23:20 27.55437 -80.92514 13039 ft 360 kts 339°
2026-05-03 23:21 27.57854 -80.93234 13040 ft 360 kts 339°
2026-05-03 23:21 27.60281 -80.93958 13044 ft 360 kts 339°
2026-05-03 23:21 27.62705 -80.94682 13032 ft 359 kts 339°
2026-05-03 23:21 27.65125 -80.95404 13048 ft 359 kts 339°
2026-05-03 23:22 27.69944 -80.96844 13033 ft 359 kts 339°
2026-05-03 23:22 27.72358 -80.97566 13039 ft 359 kts 339°
2026-05-03 23:22 27.74769 -80.98286 13037 ft 359 kts 339°
2026-05-03 23:23 27.77190 -80.99011 13044 ft 359 kts 339°
2026-05-03 23:23 27.79601 -80.99732 13048 ft 359 kts 339°
2026-05-03 23:23 27.82017 -81.00456 13047 ft 359 kts 339°
2026-05-03 23:23 27.84431 -81.01179 13046 ft 359 kts 339°
2026-05-03 23:24 27.86853 -81.01905 13052 ft 359 kts 339°
2026-05-03 23:24 27.89271 -81.02630 13049 ft 359 kts 339°
2026-05-03 23:24 27.91683 -81.03354 13045 ft 359 kts 339°
2026-05-03 23:24 27.94074 -81.04135 13054 ft 356 kts 334°
2026-05-03 23:25 27.96385 -81.05121 13056 ft 355 kts 333°
2026-05-03 23:25 27.98692 -81.06102 13051 ft 355 kts 333°
2026-05-03 23:25 28.00987 -81.07074 13053 ft 355 kts 333°
2026-05-03 23:25 28.03307 -81.08054 13056 ft 355 kts 333°
2026-05-03 23:26 28.05617 -81.09031 13058 ft 355 kts 333°
2026-05-03 23:26 28.07940 -81.10015 13045 ft 354 kts 333°
2026-05-03 23:26 28.10242 -81.10985 12865 ft 351 kts 333°
2026-05-03 23:26 28.12459 -81.11995 12763 ft 333 kts 324°
2026-05-03 23:27 28.14154 -81.13596 12645 ft 305 kts 302°
2026-05-03 23:27 28.15098 -81.15623 12527 ft 281 kts 281°
2026-05-03 23:27 28.15194 -81.17731 12424 ft 262 kts 256°
2026-05-03 23:27 28.14432 -81.19523 12322 ft 250 kts 230°
2026-05-03 23:28 28.13021 -81.20608 12220 ft 246 kts 204°
2026-05-03 23:28 28.11499 -81.21339 12074 ft 229 kts 221°
2026-05-03 23:28 28.10207 -81.22379 11710 ft 232 kts 208°
2026-05-03 23:28 28.08598 -81.22657 11313 ft 248 kts 179°
2026-05-03 23:29 28.06922 -81.21992 10931 ft 260 kts 162°
2026-05-03 23:29 28.05230 -81.21539 10564 ft 243 kts 190°
2026-05-03 23:29 28.03669 -81.22057 10164 ft 230 kts 219°
2026-05-03 23:29 28.02287 -81.22871 9943 ft 230 kts 194°
2026-05-03 23:30 28.00688 -81.22630 9653 ft 242 kts 158°
2026-05-03 23:30 27.99465 -81.21286 9195 ft 259 kts 120°
2026-05-03 23:30 27.99123 -81.19290 8821 ft 263 kts 81°
2026-05-03 23:30 27.99834 -81.17441 8508 ft 255 kts 44°
2026-05-03 23:31 28.01275 -81.16411 8185 ft 241 kts
2026-05-03 23:31 28.02872 -81.16509 7842 ft 230 kts 330°
2026-05-03 23:31 28.04170 -81.17705 8071 ft 255 kts 310°
2026-05-03 23:31 28.05328 -81.19350 7993 ft 275 kts 303°
2026-05-03 23:32 28.06467 -81.21111 7967 ft 277 kts 303°
2026-05-03 23:32 28.07597 -81.22861 7681 ft 280 kts 303°
2026-05-03 23:32 28.08903 -81.24538 7096 ft 292 kts 320°
2026-05-03 23:32 28.10730 -81.25649 6413 ft 305 kts 333°
2026-05-03 23:33 28.12695 -81.26645 5613 ft 316 kts 333°
2026-05-03 23:33 28.14733 -81.27567 5310 ft 306 kts 341°
2026-05-03 23:33 28.16707 -81.27964 5049 ft 272 kts 352°
2026-05-03 23:33 28.18507 -81.28032 4655 ft 247 kts 358°
2026-05-03 23:34 28.20154 -81.28021 4333 ft 228 kts 356°
2026-05-03 23:34 28.21694 -81.28038 4031 ft 214 kts 356°
2026-05-03 23:34 28.23124 -81.28051 3765 ft 204 kts 356°
2026-05-03 23:34 28.24521 -81.28066 3502 ft 196 kts 357°
2026-05-03 23:35 28.25830 -81.28078 3249 ft 181 kts 357°
2026-05-03 23:35 28.27047 -81.28090 3023 ft 169 kts 356°
2026-05-03 23:35 28.28184 -81.28101 2800 ft 158 kts 357°
2026-05-03 23:35 28.29253 -81.28112 2614 ft 154 kts 357°
2026-05-03 23:36 28.29961 -81.28119 2482 ft 150 kts 358°
2026-05-03 23:36 28.30960 -81.28128 2278 ft 137 kts 358°
2026-05-03 23:36 28.31909 -81.28138 2105 ft 138 kts 358°
2026-05-03 23:36 28.32852 -81.28147 1927 ft 134 kts 358°
2026-05-03 23:37 28.33787 -81.28156 1747 ft 135 kts 359°
2026-05-03 23:37 28.34724 -81.28165 1562 ft 133 kts 359°
2026-05-03 23:37 28.35653 -81.28175 1398 ft 134 kts 359°
2026-05-03 23:37 28.36581 -81.28184 1214 ft 133 kts 359°
2026-05-03 23:38 28.37501 -81.28193 1039 ft 132 kts 359°
2026-05-03 23:38 28.38428 -81.28202 834 ft 134 kts
2026-05-03 23:38 28.39325 -81.28211 645 ft 126 kts
2026-05-03 23:38 28.40212 -81.28229 469 ft 128 kts
2026-05-03 23:39 28.41118 -81.28239 326 ft 134 kts
2026-05-03 23:39 28.42025 -81.28240 123 ft 126 kts
2026-05-03 23:39 28.42839 -81.28237 98 ft 93 kts 359°
2026-05-03 23:39 28.43203 -81.28247 96 ft 32 kts 355°
2026-05-03 23:40 28.43431 -81.28260 97 ft 33 kts 343°
2026-05-03 23:40 28.43568 -81.28362 97 ft 11 kts 328°
2026-05-03 23:40 28.43582 -81.28369 95 ft 0 kts 338°
2026-05-03 23:40 28.43582 -81.28370 95 ft 0 kts 339°
2026-05-03 23:41 28.43606 -81.28373 96 ft 8 kts 355°
2026-05-03 23:41 28.43692 -81.28377 97 ft 17 kts 359°
2026-05-03 23:41 28.43833 -81.28380 97 ft 22 kts 348°
2026-05-03 23:41 28.43870 -81.28499 98 ft 15 kts 269°
2026-05-03 23:42 28.43871 -81.28621 100 ft 17 kts 270°
2026-05-03 23:42 28.43872 -81.28754 106 ft 16 kts 269°
2026-05-03 23:42 28.43869 -81.28886 108 ft 18 kts 269°
2026-05-03 23:42 28.43866 -81.29048 107 ft 22 kts 268°
2026-05-03 23:43 28.43859 -81.29237 96 ft 21 kts 241°
2026-05-03 23:43 28.43785 -81.29258 97 ft 18 kts 179°
2026-05-03 23:43 28.43645 -81.29263 98 ft 22 kts 179°
2026-05-03 23:43 28.43570 -81.29278 98 ft 9 kts 233°
2026-05-03 23:44 28.43552 -81.29364 97 ft 5 kts 271°
2026-05-03 23:44 28.43552 -81.29365 97 ft 0 kts 271°
2026-05-03 23:44 28.43553 -81.29418 96 ft 24 kts 271°
2026-05-03 23:45 28.43550 -81.29629 96 ft 25 kts 270°
2026-05-03 23:45 28.43550 -81.29677 97 ft 0 kts 270°
2026-05-03 23:46 28.43550 -81.29678 97 ft 1 kts 270°
2026-05-03 23:46 28.43550 -81.29771 95 ft 17 kts 270°
2026-05-03 23:46 28.43549 -81.29858 95 ft 0 kts 269°
2026-05-03 23:47 28.43542 -81.29886 96 ft 12 kts 252°
2026-05-03 23:47 28.43513 -81.30021 94 ft 16 kts 256°
2026-05-03 23:47 28.43509 -81.30039 95 ft 3 kts 259°